FW4070 Weather Reports


Display with metric or nautical units.
time (UTC)temp
F
wind
direction
speed
MPH
gust
MPH
rain 1hr
in
rain 24hr
in
rain mn
in
humidity
%
barometer
mb
20260902155529 78 194 2.0 5.0 0.00 0.18 0.18 80 1014.0
20260902155034 78 206 2.0 6.0 0.00 0.18 0.18 79 1014.0
20260902154538 78 221 3.0 7.0 0.00 0.18 0.18 79 1014.0
20260902154049 78 150 2.0 10.0 0.00 0.18 0.18 80 1014.0
20260902153553 78 205 1.0 10.0 0.00 0.18 0.18 82 1014.0
20260902153101 78 193 2.0 7.0 0.00 0.18 0.18 83 1014.0
20260902152511 77 209 3.0 8.0 0.00 0.18 0.18 84 1014.1
20260902152021 76 179 2.0 9.0 0.00 0.18 0.18 85 1014.1
20260902151528 75 202 3.0 9.0 0.00 0.18 0.18 86 1014.0
20260902151034 74 232 2.0 9.0 0.00 0.18 0.18 87 1014.0
20260902150511 74 153 3.0 10.0 0.01 0.18 0.18 87 1014.0
20260902150011 73 150 3.0 10.0 0.01 0.18 0.18 88 1014.1
20260902145527 73 195 2.0 6.0 0.01 0.18 0.18 88 1014.2
20260902145025 73 162 3.0 5.0 0.01 0.18 0.18 88 1014.4
20260902144527 73 189 2.0 6.0 0.01 0.18 0.18 88 1014.4
20260902144029 73 192 2.0 6.0 0.01 0.18 0.18 88 1014.5
20260902143535 72 173 2.0 5.0 0.01 0.18 0.18 88 1014.4
20260902143016 72 162 3.0 7.0 0.01 0.18 0.18 89 1014.4
20260902142533 72 148 3.0 7.0 0.01 0.18 0.18 89 1014.5
20260902142027 72 177 3.0 7.0 0.01 0.18 0.18 89 1014.5
20260902141508 72 150 3.0 7.0 0.01 0.18 0.18 89 1014.5
20260902141056 72 153 2.0 9.0 0.01 0.18 0.18 88 1014.5
20260902140541 72 134 3.0 11.0 0.00 0.17 0.17 88 1014.4
20260902140044 72 167 2.0 11.0 0.00 0.17 0.17 88 1014.4
20260902135548 72 175 2.0 9.0 0.01 0.17 0.17 89 1014.4
20260902135053 72 172 3.0 6.0 0.01 0.17 0.17 89 1014.3
20260902134503 71 236 2.0 6.0 0.01 0.17 0.17 90 1014.6
20260902134002 71 198 2.0 9.0 0.01 0.17 0.17 90 1014.8
20260902133513 71 131 2.0 9.0 0.01 0.17 0.17 91 1014.6
20260902133025 71 183 2.0 8.0 0.01 0.17 0.17 91 1014.8
20260902132539 71 201 1.0 7.0 0.01 0.17 0.17 91 1014.8
20260902132047 71 205 2.0 7.0 0.01 0.17 0.17 91 1014.7
20260902131601 71 195 1.0 4.0 0.01 0.17 0.17 91 1014.3
20260902131103 71 200 1.0 5.0 0.02 0.17 0.17 91 1014.5
20260902130515 71 200 2.0 12.0 0.02 0.17 0.17 91 1014.3
20260902130026 71 195 2.0 14.0 0.02 0.17 0.17 91 1014.5
20260902125534 71 227 5.0 10.0 0.01 0.16 0.16 91 1014.9
20260902125039 71 360 2.0 12.0 0.01 0.16 0.16 91 1015.1
20260902124543 70 221 3.0 12.0 0.01 0.16 0.16 91 1014.7
20260902124046 70 250 4.0 10.0 0.01 0.16 0.16 91 1014.7
20260902123554 70 215 2.0 11.0 0.01 0.16 0.16 91 1014.5
20260902123006 70 227 4.0 11.0 0.01 0.16 0.16 91 1014.8
20260902122522 70 190 1.0 8.0 0.01 0.16 0.16 91 1014.7
20260902122022 70 360 3.0 8.0 0.03 0.16 0.16 91 1014.4
20260902121532 70 178 2.0 6.0 0.04 0.16 0.16 91 1014.2
20260902121046 70 202 2.0 7.0 0.04 0.15 0.16 91 1014.4
20260902120528 71 238 1.0 9.0 0.04 0.15 0.15 91 1014.8
20260902120041 71 201 3.0 12.0 0.07 0.15 0.15 91 1015.0
20260902115546 71 222 2.0 15.0 0.13 0.15 0.15 91 1015.1
20260902115048 72 360 6.0 15.0 0.14 0.15 0.15 91 1015.4
20260902114555 72 265 6.0 11.0 0.15 0.15 0.15 92 1015.7
20260902114100 72 360 2.0 7.0 0.15 0.15 0.15 91 1015.2
20260902113508 72 210 2.0 8.0 0.15 0.15 0.15 91 1014.7
20260902113104 72 200 0.0 6.0 0.15 0.15 0.15 91 1014.9
20260902112504 72 193 2.0 9.0 0.14 0.14 0.14 90 1014.9
20260902112049 72 201 2.0 5.0 0.13 0.13 0.13 90 1015.1
20260902111555 73 199 2.0 5.0 0.12 0.12 0.12 90 1014.9
20260902111048 74 211 1.0 3.0 0.11 0.11 0.11 90 1014.5
20260902110557 74 211 1.0 12.0 0.11 0.11 0.11 89 1014.2
20260902110104 74 360 3.0 12.0 0.08 0.08 0.08 88 1014.4
20260902105504 75 360 4.0 10.0 0.01 0.01 0.02 87 1014.5
20260902105014 75 223 5.0 10.0 0.01 0.01 0.01 87 1014.4
20260902104532 76 214 2.0 11.0 0.00 0.00 0.00 86 1013.7
20260902104025 76 205 3.0 11.0 0.00 0.00 0.00 86 1013.4
20260902103532 75 215 4.0 7.0 0.00 0.00 0.00 87 1013.2
20260902103040 75 213 2.0 5.0 0.00 0.00 0.00 86 1012.8
20260902102550 75 197 2.0 8.0 0.00 0.00 0.00 86 1012.5
20260902102059 75 183 3.0 9.0 0.00 0.00 0.00 86 1012.6
20260902101605 75 140 2.0 8.0 0.00 0.00 0.00 86 1012.7
20260902101502 75 140 3.0 8.0 0.00 0.00 0.00 86 1012.6
20260902101006 75 196 3.0 8.0 0.00 0.00 0.00 86 1012.3
20260902100518 75 181 1.0 5.0 0.00 0.00 0.00 86 1012.4
20260902100028 75 138 2.0 6.0 0.00 0.00 0.00 87 1012.7
20260902095539 75 157 2.0 8.0 0.00 0.00 0.00 87 1012.9
20260902095051 75 146 3.0 8.0 0.00 0.00 0.00 86 1013.0
20260902094554 75 163 2.0 6.0 0.00 0.00 0.00 86 1012.8
20260902094040 75 188 3.0 6.0 0.00 0.00 0.00 85 1012.4
20260902093545 75 197 2.0 5.0 0.00 0.00 0.00 85 1012.5
20260902093034 75 162 2.0 7.0 0.00 0.00 0.00 85 1012.6
20260902092534 75 139 3.0 6.0 0.00 0.00 0.00 85 1012.7
20260902092026 75 151 2.0 6.0 0.00 0.00 0.00 85 1012.8
20260902091527 75 169 3.0 5.0 0.00 0.00 0.00 85 1012.9
20260902091030 75 172 3.0 8.0 0.00 0.00 0.00 85 1012.8
20260902090535 75 148 2.0 8.0 0.00 0.00 0.00 85 1012.9
20260902090048 75 197 2.0 8.0 0.00 0.00 0.00 85 1013.0
20260902085600 75 177 1.0 8.0 0.00 0.00 0.00 85 1013.0
20260902085002 75 184 2.0 8.0 0.00 0.00 0.00 86 1013.2
20260902084516 75 229 2.0 5.0 0.00 0.00 0.00 85 1013.3
20260902084022 75 224 1.0 4.0 0.00 0.00 0.00 85 1013.2
20260902083523 75 142 1.0 3.0 0.00 0.00 0.00 85 1013.3
20260902083032 75 184 2.0 3.0 0.00 0.00 0.00 85 1013.3
20260902082542 75 194 1.0 3.0 0.00 0.00 0.00 85 1013.3
20260902082050 75 194 1.0 4.0 0.00 0.00 0.00 85 1013.5
20260902081505 75 193 1.0 6.0 0.00 0.00 0.00 86 1013.6
20260902081104 74 224 1.0 6.0 0.00 0.00 0.00 86 1013.5
20260902080550 74 209 0.0 4.0 0.00 0.00 0.00 86 1013.4
20260902080013 74 215 1.0 5.0 0.00 0.00 0.00 86 1013.4
20260902075512 74 202 1.0 4.0 0.00 0.00 0.00 86 1013.4
20260902075024 74 209 1.0 4.0 0.00 0.00 0.00 86 1013.4
20260902074527 74 212 2.0 5.0 0.00 0.00 0.00 85 1013.5
20260902074034 74 216 2.0 5.0 0.00 0.00 0.00 85 1013.5
20260902073538 74 251 1.0 5.0 0.00 0.00 0.00 85 1013.5
20260902073046 74 280 1.0 5.0 0.00 0.00 0.00 85 1013.6
20260902072552 74 226 2.0 5.0 0.00 0.00 0.00 85 1013.6
20260902072002 74 201 1.0 5.0 0.00 0.00 0.00 85 1013.7
20260902071524 74 198 1.0 6.0 0.00 0.00 0.00 85 1013.6
20260902071028 74 200 2.0 6.0 0.00 0.00 0.00 85 1013.6
20260902070535 74 212 0.0 4.0 0.00 0.00 0.00 85 1013.7
20260902070021 74 223 1.0 5.0 0.00 0.00 0.00 85 1013.7
20260902065523 75 232 1.0 5.0 0.00 0.00 0.00 85 1013.8
20260902065038 75 206 1.0 4.0 0.00 0.00 0.00 85 1013.7
20260902064549 75 175 0.0 4.0 0.00 0.00 0.00 85 1013.6
20260902064049 75 196 1.0 4.0 0.00 0.00 0.00 84 1013.6
20260902063600 75 196 1.0 3.0 0.00 0.00 0.00 84 1013.6
20260902063501 75 196 0.0 3.0 0.00 0.00 0.00 84 1013.6
20260902063016 75 196 1.0 4.0 0.00 0.00 0.00 84 1013.9
20260902062522 75 197 1.0 4.0 0.00 0.00 0.00 84 1013.9
20260902062016 76 193 1.0 6.0 0.00 0.00 0.00 83 1014.0
20260902061518 76 189 2.0 6.0 0.00 0.00 0.00 83 1014.1
20260902061036 76 185 1.0 6.0 0.00 0.00 0.00 83 1014.1
20260902060530 76 204 1.0 6.0 0.00 0.00 0.00 83 1014.2
20260902060019 76 190 1.0 7.0 0.00 0.00 0.00 83 1014.2
20260902055554 76 191 2.0 7.0 0.00 0.00 0.00 82 1014.1
20260902055057 77 187 0.0 8.0 0.00 0.00 0.00 82 1014.1
20260902054507 77 186 2.0 8.0 0.00 0.00 0.00 82 1014.1
20260902054021 77 202 2.0 5.0 0.00 0.00 0.00 82 1013.9
20260902053524 77 215 1.0 5.0 0.00 0.00 0.00 82 1013.9
20260902053042 77 180 1.0 4.0 0.00 0.00 0.00 81 1013.9
20260902052541 77 180 1.0 6.0 0.00 0.00 0.00 81 1013.9
20260902052032 77 180 1.0 6.0 0.00 0.00 0.00 81 1013.7
20260902051544 77 200 1.0 5.0 0.00 0.00 0.00 82 1013.8
20260902051045 77 198 0.0 4.0 0.00 0.00 0.00 82 1013.8
20260902050552 77 205 1.0 4.0 0.00 0.00 0.00 82 1013.9
20260902050042 77 209 0.0 4.0 0.00 0.00 0.00 82 1013.9
20260902045521 77 209 1.0 4.0 0.00 0.00 0.00 82 1013.7
20260902045026 77 213 0.0 2.0 0.00 0.00 0.00 81 1013.6
20260902044542 77 213 0.0 1.0 0.00 0.00 0.00 81 1013.6
20260902044034 77 213 0.0 2.0 0.00 0.00 0.00 82 1013.6
20260902043542 77 213 0.0 2.0 0.00 0.00 0.00 82 1013.6
20260902043050 77 214 0.0 0.0 0.00 0.00 0.00 82 1013.6
20260902042558 77 214 0.0 2.0 0.00 0.00 0.00 82 1013.7
20260902042043 77 214 0.0 3.0 0.00 0.00 0.00 82 1013.7
20260902041548 77 214 0.0 3.0 0.00 0.00 0.00 83 1013.7
20260902041049 77 214 1.0 3.0 0.00 0.00 0.00 83 1013.7
20260902040600 77 215 0.0 2.0 0.00 0.00 0.00 83 1013.7
20260902040100 77 215 0.0 0.0 0.00 0.00 0.00 83 1013.7
20260902035602 77 215 0.0 0.0 0.00 0.00 0.00 83 1013.6
20260902035503 77 215 0.0 1.0 0.00 0.00 0.00 83 1013.7
20260902035052 77 215 0.0 2.0 0.00 0.00 0.00 83 1013.7
20260902034557 77 215 0.0 3.0 0.00 0.00 0.00 83 1013.6
20260902034008 77 215 0.0 3.0 0.00 0.00 0.00 84 1013.6
20260902033550 77 214 0.0 3.0 0.00 0.00 0.00 84 1013.5
20260902033106 77 213 0.0 3.0 0.00 0.00 0.00 85 1013.5
20260902032601 77 213 0.0 0.0 0.00 0.00 0.00 85 1013.5
20260902032501 76 213 0.0 0.0 0.00 0.00 0.00 85 1013.5
20260902032016 76 213 0.0 3.0 0.00 0.00 0.00 85 1013.4
20260902031532 76 213 0.0 3.0 0.00 0.00 0.00 85 1013.4
20260902031020 76 213 0.0 0.0 0.00 0.00 0.00 85 1013.4
20260902030531 76 213 0.0 0.0 0.00 0.00 0.00 85 1013.4
20260902030038 76 213 0.0 3.0 0.00 0.00 0.00 85 1013.4
20260902025546 76 213 0.0 3.0 0.00 0.00 0.00 85 1013.4
20260902025026 76 192 0.0 4.0 0.00 0.00 0.00 85 1013.4
20260902024516 76 192 1.0 4.0 0.00 0.00 0.00 85 1013.4
20260902024020 76 200 1.0 4.0 0.00 0.00 0.00 85 1013.5
20260902023528 77 200 1.0 4.0 0.00 0.00 0.00 85 1013.5
20260902023041 77 200 1.0 4.0 0.00 0.00 0.00 84 1013.5
20260902022547 77 200 1.0 4.0 0.00 0.00 0.00 84 1013.5
20260902022055 77 200 0.0 2.0 0.00 0.00 0.00 84 1013.5
20260902021506 77 200 0.0 2.0 0.00 0.00 0.00 84 1013.5
20260902021050 77 200 0.0 6.0 0.00 0.00 0.00 84 1013.4
20260902020558 77 200 1.0 6.0 0.00 0.00 0.00 85 1013.3
20260902020010 77 203 0.0 4.0 0.00 0.00 0.00 85 1013.3
20260902015524 77 200 1.0 4.0 0.00 0.00 0.00 85 1013.3
20260902015026 77 202 0.0 2.0 0.00 0.00 0.00 85 1013.3
20260902014534 77 202 0.0 2.0 0.00 0.00 0.00 85 1013.3
20260902014019 77 202 0.0 2.0 0.00 0.00 0.00 85 1013.3
20260902013504 77 202 0.0 3.0 0.00 0.00 0.00 85 1013.3
20260902013120 77 360 0.0 3.0 0.00 0.00 0.00 85 1013.3
20260902012544 77 202 1.0 4.0 0.00 0.00 0.00 85 1013.2
20260902012027 77 360 0.0 3.0 0.00 0.00 0.00 85 1013.3
20260902011512 77 196 1.0 4.0 0.00 0.00 0.00 85 1013.2
20260902011021 77 197 0.0 4.0 0.00 0.00 0.00 85 1013.2
20260902010518 77 192 1.0 5.0 0.00 0.00 0.00 85 1013.3
20260902010021 77 192 1.0 5.0 0.00 0.00 0.00 85 1013.2
20260902005504 77 202 1.0 5.0 0.00 0.00 0.00 85 1013.3
20260902005017 77 218 1.0 5.0 0.00 0.00 0.00 85 1013.2
20260902004516 77 198 1.0 4.0 0.00 0.00 0.00 85 1013.2
20260902004019 77 197 1.0 5.0 0.00 0.00 0.00 84 1013.2
20260902003530 77 360 2.0 5.0 0.00 0.00 0.00 84 1013.3
20260902003103 77 196 1.0 4.0 0.00 0.00 0.00 84 1013.3
20260902002544 77 196 1.0 3.0 0.00 0.00 0.00 84 1013.3
20260902002027 77 196 0.0 5.0 0.00 0.00 0.00 83 1013.3
20260902001532 77 196 1.0 5.0 0.00 0.00 0.00 83 1013.3
20260902001041 77 227 1.0 3.0 0.00 0.00 0.00 82 1013.3
20260902000545 77 228 0.0 3.0 0.00 0.00 0.00 82 1013.3
20260902000054 78 228 0.0 3.0 0.00 0.00 0.00 82 1013.3
20260901235600 78 228 1.0 3.0 0.00 0.00 0.00 81 1013.3
20260901235505 78 228 1.0 3.0 0.00 0.00 0.00 81 1013.2
20260901235005 78 228 0.0 4.0 0.00 0.00 0.00 81 1013.2
20260901234534 78 227 0.0 3.0 0.00 0.00 0.00 80 1013.3
20260901234026 78 215 0.0 3.0 0.00 0.00 0.00 80 1013.3
20260901233532 79 217 1.0 4.0 0.00 0.00 0.00 79 1013.4
20260901233050 79 216 1.0 4.0 0.00 0.00 0.00 79 1013.4
20260901232527 79 227 2.0 5.0 0.00 0.00 0.00 78 1013.4
20260901232030 79 225 1.0 8.0 0.00 0.00 0.00 77 1013.3
20260901231536 79 230 2.0 13.0 0.00 0.00 0.00 77 1013.3
20260901231009 80 360 3.0 13.0 0.00 0.00 0.00 76 1013.3
20260901230526 80 360 2.0 9.0 0.00 0.00 0.00 75 1013.3
20260901230005 80 360 3.0 11.0 0.00 0.00 0.00 74 1013.3
20260901225554 81 225 6.0 11.0 0.00 0.00 0.00 73 1013.2
20260901225055 81 248 3.0 7.0 0.00 0.00 0.00 73 1013.2
20260901224506 81 234 3.0 8.0 0.00 0.00 0.00 73 1013.1
20260901224005 81 225 1.0 5.0 0.00 0.00 0.00 74 1013.2
20260901223520 81 247 1.0 6.0 0.00 0.00 0.00 73 1013.2
20260901223028 81 247 1.0 5.0 0.00 0.00 0.00 74 1013.2
20260901222526 81 242 2.0 10.0 0.00 0.00 0.00 75 1013.2
20260901222037 81 258 4.0 10.0 0.00 0.00 0.00 74 1013.2
20260901221608 81 360 2.0 6.0 0.00 0.00 0.00 74 1013.4
20260901221052 81 231 3.0 8.0 0.00 0.00 0.00 74 1013.5
20260901220541 81 360 3.0 8.0 0.00 0.00 0.00 73 1013.6
20260901220053 81 360 3.0 10.0 0.00 0.00 0.00 74 1013.5
20260901215504 81 360 4.0 10.0 0.00 0.00 0.00 73 1013.5
20260901215010 81 360 4.0 8.0 0.00 0.00 0.00 73 1013.5
20260901214525 81 360 3.0 9.0 0.00 0.00 0.00 73 1013.5
20260901214032 81 272 3.0 9.0 0.00 0.00 0.00 73 1013.4
20260901213507 81 360 4.0 10.0 0.00 0.00 0.00 74 1013.4
20260901213004 81 360 4.0 10.0 0.00 0.00 0.00 74 1013.4
20260901212522 81 213 3.0 7.0 0.00 0.00 0.00 75 1013.4
20260901212004 81 360 3.0 8.0 0.00 0.00 0.00 75 1013.5
20260901211524 81 242 2.0 8.0 0.00 0.00 0.00 76 1013.4
20260901211006 81 243 3.0 6.0 0.00 0.00 0.00 76 1013.5
20260901210523 81 360 4.0 6.0 0.00 0.00 0.00 75 1013.4
20260901210028 81 360 2.0 8.0 0.00 0.00 0.00 75 1013.5
20260901205551 82 248 4.0 9.0 0.00 0.00 0.00 74 1013.4
20260901205057 82 360 4.0 9.0 0.00 0.00 0.00 74 1013.4
20260901204508 82 360 3.0 8.0 0.00 0.00 0.00 75 1013.3
20260901204047 82 360 4.0 9.0 0.00 0.00 0.00 75 1013.3
20260901203553 81 360 5.0 9.0 0.00 0.00 0.00 75 1013.3
20260901203103 81 231 4.0 7.0 0.00 0.00 0.00 75 1013.3
20260901202539 81 234 2.0 10.0 0.00 0.00 0.00 77 1013.3
20260901202042 81 244 4.0 10.0 0.00 0.00 0.00 77 1013.4
20260901201548 81 257 4.0 11.0 0.00 0.00 0.00 78 1013.4
20260901201051 80 280 4.0 11.0 0.00 0.00 0.00 78 1013.4
20260901200559 80 360 5.0 10.0 0.00 0.00 0.00 77 1013.6
20260901200503 81 234 5.0 10.0 0.00 0.00 0.00 77 1013.6
20260901200005 81 244 3.0 11.0 0.00 0.00 0.00 79 1013.7
20260901195519 80 360 6.0 12.0 0.00 0.00 0.00 77 1013.7
20260901195025 80 360 5.0 12.0 0.00 0.00 0.00 77 1013.6
20260901194535 80 279 6.0 11.0 0.00 0.00 0.00 78 1013.4
20260901194045 80 232 5.0 11.0 0.00 0.00 0.00 78 1013.4
20260901193551 80 360 6.0 13.0 0.00 0.00 0.00 78 1013.5
20260901193055 80 264 6.0 13.0 0.00 0.00 0.00 79 1013.5
20260901192553 80 360 6.0 13.0 0.00 0.00 0.00 79 1013.5
20260901192057 80 360 7.0 14.0 0.00 0.00 0.00 79 1013.6
20260901191545 80 360 6.0 14.0 0.00 0.00 0.00 80 1013.6
20260901191039 80 360 5.0 17.0 0.00 0.00 0.00 81 1013.7
20260901190547 80 360 7.0 14.0 0.00 0.00 0.00 80 1013.7
20260901190051 80 360 8.0 16.0 0.00 0.00 0.00 80 1013.6
20260901185559 80 360 7.0 18.0 0.00 0.00 0.00 81 1013.6
20260901185038 80 360 7.0 15.0 0.00 0.00 0.00 81 1013.6
20260901184555 80 360 7.0 15.0 0.00 0.00 0.00 80 1013.6
20260901184040 80 360 8.0 15.0 0.00 0.00 0.00 80 1013.6
20260901183523 81 360 8.0 15.0 0.00 0.00 0.00 79 1013.5
20260901183030 81 262 8.0 14.0 0.00 0.00 0.00 80 1013.5
20260901182517 81 360 7.0 14.0 0.00 0.00 0.00 80 1013.4
20260901182026 81 360 7.0 15.0 0.00 0.00 0.00 80 1013.4
20260901181524 81 360 5.0 12.0 0.00 0.00 0.00 80 1013.3
20260901181029 81 360 6.0 12.0 0.00 0.00 0.00 80 1013.2
20260901180537 81 360 6.0 14.0 0.00 0.00 0.00 81 1013.2
20260901175545 81 360 7.0 14.0 0.00 0.00 0.00 81 1013.4
20260901175045 81 360 8.0 13.0 0.00 0.00 0.00 81 1013.3
20260901174555 80 268 6.0 12.0 0.00 0.00 0.00 81 1013.3
20260901174002 81 242 7.0 12.0 0.00 0.00 0.00 80 1013.4
20260901173509 80 251 7.0 13.0 0.00 0.00 0.00 81 1013.4
20260901173007 80 360 8.0 13.0 0.00 0.00 0.00 81 1013.4
20260901172517 80 360 7.0 15.0 0.00 0.00 0.00 82 1013.5
20260901172059 80 293 7.0 15.0 0.00 0.00 0.00 82 1013.6
20260901171510 79 360 8.0 18.0 0.00 0.00 0.00 82 1013.6
20260901171007 80 236 10.0 17.0 0.00 0.00 0.00 82 1013.6
20260901170527 80 360 8.0 16.0 0.00 0.00 0.00 82 1013.6
20260901170029 80 276 5.0 13.0 0.00 0.00 0.00 82 1013.5
20260901165529 80 360 8.0 15.0 0.00 0.00 0.00 82 1013.5
20260901165039 80 360 7.0 15.0 0.00 0.00 0.00 83 1013.5
20260901164539 79 360 7.0 16.0 0.00 0.00 0.00 83 1013.6
20260901164043 79 360 9.0 17.0 0.00 0.00 0.00 82 1013.6
20260901163525 79 360 9.0 17.0 0.00 0.00 0.00 83 1013.7
20260901163037 80 360 7.0 15.0 0.00 0.00 0.00 82 1013.7
20260901162543 80 360 7.0 16.0 0.00 0.00 0.00 83 1013.6
20260901162048 79 360 8.0 15.0 0.00 0.00 0.00 82 1013.6
20260901161559 80 268 8.0 15.0 0.00 0.00 0.00 82 1013.5
20260901161501 80 360 6.0 15.0 0.00 0.00 0.00 82 1013.5
20260901161009 80 360 9.0 15.0 0.00 0.00 0.00 82 1013.5
20260901160516 80 360 7.0 15.0 0.00 0.00 0.00 82 1013.5
20260901160034 80 274 6.0 14.0 0.00 0.00 0.00 82 1013.4